QPF
0.02 0.02 0.02 0.06 0.07 0.03 0.02 0.01 0.01 0.01 0.00 0.00 0.00 0.00 0.00 0.00 0.00 0.00 0.00 0.00 0.00 0.00 0.00 0.00 0.00 0.00 0.00 0.00 0.00 0.01 0.01 0.01 0.01 0.01 0.01 0.03 0.03 0.02 0.03 0.04 0.03 0.03 0.03
0.03 0.02 0.02 0.02 0.04 0.04 0.02 0.01 0.01 0.01 0.01 0.01 0.01 0.00 0.00 0.00 0.00 0.00 0.00 0.00 0.00 0.00 0.00 0.00 0.00 0.00 0.00 0.00 0.00 0.01 0.01 0.01 0.00 0.00 0.01 0.03 0.03 0.03 0.03 0.03 0.03 0.03 0.03
0.02 0.01 0.01 0.02 0.02 0.04 0.02 0.01 0.01 0.01 0.01 0.01 0.01 0.01 0.00 0.00 0.00 0.01 0.01 0.00 0.00 0.00 0.00 0.00 0.00 0.00 0.00 0.00 0.00 0.00 0.00 0.00 0.00 0.00 0.01 0.03 0.03 0.04 0.05 0.05 0.04 0.03 0.04
0.02 0.01 0.01 0.01 0.02 0.02 0.02 0.01 0.01 0.01 0.01 0.01 0.01 0.01 0.01 0.00 0.00 0.00 0.00 0.00 0.00 0.00 0.00 0.00 0.00 0.01 0.00 0.00 0.01 0.00 0.00 0.00 0.00 0.01 0.01 0.03 0.03 0.03 0.04 0.07 0.04 0.02 0.02
0.02 0.01 0.01 0.01 0.02 0.03 0.02 0.02 0.02 0.01 0.01 0.02 0.02 0.01 0.01 0.00 0.00 0.00 0.00 0.00 0.00 0.00 0.00 0.00 0.00 0.00 0.01 0.01 0.00 0.00 0.00 0.00 0.00 0.00 0.01 0.02 0.04 0.02 0.02 0.04 0.03 0.02 0.01
0.02 0.01 0.00 0.01 0.01 0.02 0.03 0.03 0.02 0.02 0.02 0.02 0.02 0.02 0.01 0.00 0.00 0.00 0.00 0.00 0.01 0.01 0.00 0.00 0.00 0.00 0.01 0.01 0.01 0.00 0.00 0.00 0.00 0.00 0.00 0.01 0.04 0.04 0.02 0.01 0.01 0.01 0.01
0.02 0.01 0.00 0.01 0.01 0.01 0.02 0.03 0.03 0.02 0.02 0.03 0.03 0.03 0.02 0.01 0.01 0.01 0.01 0.01 0.01 0.01 0.01 0.00 0.00 0.00 0.01 0.01 0.01 0.01 0.01 0.01 0.01 0.01 0.00 0.01 0.03 0.04 0.02 0.01 0.00 0.00 0.01
0.01 0.02 0.01 0.00 0.00 0.01 0.01 0.02 0.03 0.02 0.02 0.03 0.03 0.03 0.03 0.02 0.01 0.02 0.02 0.03 0.02 0.02 0.01 0.01 0.00 0.00 0.00 0.00 0.00 0.00 0.01 0.01 0.01 0.01 0.01 0.01 0.02 0.03 0.02 0.01 0.00 0.00 0.00
0.01 0.02 0.03 0.01 0.01 0.00 0.01 0.01 0.01 0.01 0.02 0.02 0.03 0.02 0.02 0.02 0.02 0.03 0.04 0.04 0.04 0.03 0.01 0.01 0.00 0.00 0.00 0.00 0.00 0.00 0.01 0.01 0.01 0.01 0.01 0.01 0.01 0.01 0.01 0.01 0.00 0.00 0.00
0.01 0.01 0.02 0.03 0.02 0.02 0.01 0.01 0.02 0.02 0.02 0.03 0.02 0.02 0.03 0.02 0.03 0.03 0.04 0.04 0.03 0.02 0.01 0.01 0.00 0.00 0.00 0.00 0.00 0.00 0.01 0.02 0.01 0.01 0.01 0.01 0.01 0.01 0.01 0.01 0.00 0.00 0.00
0.01 0.01 0.01 0.02 0.03 0.02 0.02 0.01 0.01 0.01 0.02 0.02 0.02 0.02 0.02 0.03 0.03 0.04 0.04 0.04 0.02 0.01 0.02 0.01 0.01 0.01 0.00 0.01 0.01 0.01 0.02 0.02 0.02 0.01 0.01 0.01 0.01 0.01 0.01 0.01 0.00 0.00 0.00
0.00 0.01 0.01 0.02 0.02 0.01 0.01 0.01 0.01 0.01 0.01 0.01 0.02 0.02 0.03 0.03 0.03 0.03 0.04 0.04 0.03 0.02 0.01 0.01 0.01 0.01 0.01 0.01 0.01 0.01 0.02 0.02 0.01 0.01 0.01 0.01 0.01 0.01 0.01 0.01 0.00 0.00 0.00
0.00 0.01 0.01 0.02 0.02 0.01 0.01 0.01 0.01 0.01 0.01 0.01 0.02 0.03 0.03 0.03 0.03 0.04 0.05 0.05 0.04 0.03 0.02 0.01 0.01 0.00 0.00 0.01 0.00 0.00 0.01 0.02 0.01 0.01 0.01 0.01 0.01 0.01 0.00 0.00 0.00 0.00 0.00
0.01 0.01 0.01 0.01 0.01 0.01 0.02 0.01 0.01 0.01 0.01 0.01 0.02 0.01 0.02 0.03 0.03 0.04 0.05 0.04 0.03 0.03 0.02 0.02 0.02 0.01 0.00 0.00 0.01 0.00 0.01 0.01 0.01 0.01 0.01 0.01 0.01 0.00 0.00 0.00 0.00 0.00 0.00
0.01 0.00 0.00 0.01 0.01 0.02 0.02 0.01 0.01 0.01 0.00 0.01 0.01 0.01 0.01 0.02 0.03 0.04 0.04 0.03 0.02 0.02 0.02 0.02 0.02 0.02 0.01 0.01 0.01 0.01 0.01 0.01 0.01 0.01 0.01 0.01 0.01 0.01 0.00 0.00 0.00 0.00 0.00
0.01 0.01 0.01 0.01 0.03 0.02 0.02 0.02 0.02 0.01 0.01 0.01 0.02 0.03 0.03 0.04 0.05 0.05 0.03 0.02 0.02 0.02 0.03 0.03 0.02 0.02 0.02 0.02 0.02 0.01 0.01 0.01 0.01 0.01 0.01 0.01 0.01 0.01 0.01 0.01 0.01 0.00 0.00
0.01 0.01 0.01 0.01 0.02 0.01 0.01 0.01 0.01 0.01 0.01 0.02 0.03 0.04 0.05 0.06 0.06 0.06 0.04 0.02 0.02 0.02 0.02 0.03 0.03 0.03 0.03 0.03 0.02 0.02 0.02 0.01 0.01 0.00 0.00 0.01 0.01 0.01 0.01 0.01 0.01 0.01 0.01
0.01 0.01 0.01 0.01 0.01 0.01 0.01 0.02 0.01 0.01 0.01 0.02 0.02 0.03 0.04 0.04 0.04 0.03 0.03 0.02 0.01 0.01 0.02 0.02 0.02 0.02 0.03 0.03 0.03 0.03 0.03 0.02 0.01 0.01 0.00 0.00 0.00 0.00 0.01 0.01 0.00 0.00 0.01
0.01 0.01 0.01 0.01 0.01 0.01 0.01 0.01 0.01 0.01 0.00 0.01 0.01 0.02 0.03 0.03 0.03 0.03 0.02 0.02 0.02 0.01 0.02 0.02 0.02 0.02 0.02 0.02 0.02 0.02 0.02 0.02 0.02 0.01 0.01 0.00 0.00 0.00 0.00 0.00 0.00 0.00 0.01
0.00 0.00 0.00 0.00 0.01 0.01 0.01 0.01 0.01 0.01 0.01 0.01 0.01 0.01 0.02 0.02 0.02 0.03 0.02 0.02 0.01 0.01 0.01 0.01 0.02 0.03 0.03 0.02 0.02 0.01 0.01 0.01 0.01 0.01 0.01 0.00 0.00 0.00 0.00 0.00 0.00 0.00 0.01
0.00 0.00 0.01 0.01 0.01 0.01 0.01 0.01 0.01 0.01 0.01 0.01 0.01 0.01 0.01 0.01 0.02 0.04 0.05 0.03 0.02 0.02 0.02 0.01 0.01 0.03 0.03 0.03 0.02 0.02 0.01 0.01 0.01 0.01 0.01 0.00 0.00 0.00 0.00 0.00 0.00 0.00 0.00
0.00 0.00 0.00 0.00 0.01 0.01 0.01 0.00 0.00 0.01 0.01 0.01 0.01 0.01 0.01 0.01 0.02 0.02 0.03 0.04 0.05 0.04 0.03 0.02 0.01 0.02 0.03 0.04 0.04 0.03 0.02 0.02 0.01 0.01 0.00 0.00 0.00 0.00 0.00 0.00 0.00 0.00 0.00
0.00 0.00 0.00 0.00 0.01 0.01 0.01 0.01 0.01 0.01 0.01 0.01 0.01 0.01 0.01 0.01 0.02 0.03 0.03 0.03 0.04 0.04 0.04 0.04 0.04 0.03 0.03 0.05 0.05 0.04 0.03 0.03 0.02 0.02 0.01 0.01 0.01 0.00 0.00 0.00 0.00 0.00 0.00
0.00 0.00 0.00 0.00 0.00 0.01 0.01 0.01 0.02 0.03 0.02 0.01 0.01 0.01 0.01 0.01 0.02 0.03 0.03 0.03 0.04 0.05 0.06 0.06 0.04 0.04 0.04 0.05 0.06 0.05 0.04 0.03 0.02 0.02 0.01 0.01 0.01 0.01 0.00 0.00 0.00 0.00 0.00
0.00 0.00 0.00 0.00 0.00 0.01 0.00 0.01 0.02 0.03 0.02 0.02 0.02 0.03 0.02 0.02 0.02 0.02 0.03 0.03 0.03 0.04 0.03 0.03 0.03 0.03 0.04 0.04 0.04 0.04 0.04 0.03 0.03 0.02 0.02 0.02 0.01 0.01 0.01 0.00 0.01 0.01 0.01
0.00 0.00 0.00 0.00 0.00 0.00 0.00 0.00 0.01 0.01 0.02 0.02 0.02 0.02 0.02 0.02 0.02 0.02 0.02 0.03 0.04 0.05 0.04 0.03 0.02 0.02 0.03 0.03 0.02 0.02 0.02 0.02 0.02 0.02 0.01 0.01 0.01 0.01 0.01 0.00 0.00 0.00 0.00
MSLP
1019.47 1019.51 1019.53 1019.51 1019.46 1019.38 1019.31 1019.28 1019.31 1019.40 1019.54 1019.70 1019.84 1019.91 1019.88 1019.74 1019.50 1019.18 1018.84 1018.54 1018.32 1018.22 1018.28 1018.48 1018.81 1019.24 1019.70 1020.18 1020.63 1021.04 1021.39 1021.69 1021.96 1022.20 1022.42 1022.61 1022.78 1022.89 1022.94 1022.91 1022.80 1022.62 1022.38
1019.74 1019.80 1019.81 1019.76 1019.66 1019.53 1019.42 1019.36 1019.38 1019.49 1019.68 1019.90 1020.12 1020.27 1020.31 1020.22 1020.01 1019.71 1019.37 1019.05 1018.81 1018.69 1018.72 1018.90 1019.20 1019.58 1020.00 1020.43 1020.83 1021.18 1021.50 1021.78 1022.06 1022.35 1022.64 1022.95 1023.24 1023.51 1023.72 1023.86 1023.90 1023.85 1023.72
1019.87 1019.95 1019.97 1019.91 1019.78 1019.62 1019.47 1019.39 1019.40 1019.54 1019.77 1020.06 1020.35 1020.58 1020.71 1020.69 1020.53 1020.27 1019.95 1019.63 1019.38 1019.24 1019.23 1019.37 1019.62 1019.94 1020.30 1020.65 1020.98 1021.28 1021.55 1021.83 1022.12 1022.46 1022.83 1023.25 1023.69 1024.11 1024.48 1024.77 1024.96 1025.04 1025.01
1019.82 1019.95 1020.00 1019.97 1019.84 1019.67 1019.51 1019.42 1019.43 1019.59 1019.85 1020.20 1020.55 1020.86 1021.07 1021.12 1021.03 1020.82 1020.54 1020.24 1019.99 1019.84 1019.80 1019.89 1020.08 1020.33 1020.60 1020.88 1021.13 1021.37 1021.61 1021.88 1022.19 1022.57 1023.03 1023.55 1024.11 1024.66 1025.17 1025.60 1025.91 1026.10 1026.16
1019.61 1019.82 1019.95 1019.97 1019.88 1019.73 1019.58 1019.48 1019.51 1019.67 1019.95 1020.33 1020.73 1021.10 1021.37 1021.49 1021.47 1021.32 1021.09 1020.83 1020.60 1020.45 1020.39 1020.44 1020.56 1020.74 1020.94 1021.15 1021.34 1021.52 1021.73 1021.98 1022.30 1022.72 1023.23 1023.83 1024.47 1025.12 1025.73 1026.26 1026.67 1026.94 1027.08
1019.32 1019.63 1019.85 1019.94 1019.92 1019.82 1019.69 1019.61 1019.64 1019.80 1020.08 1020.47 1020.89 1021.28 1021.59 1021.77 1021.81 1021.73 1021.55 1021.35 1021.16 1021.02 1020.96 1020.98 1021.06 1021.19 1021.33 1021.47 1021.60 1021.74 1021.92 1022.15 1022.48 1022.91 1023.45 1024.07 1024.76 1025.45 1026.12 1026.70 1027.17 1027.50 1027.69
1019.01 1019.42 1019.74 1019.93 1019.99 1019.95 1019.86 1019.80 1019.83 1019.98 1020.24 1020.61 1021.02 1021.42 1021.74 1021.96 1022.05 1022.02 1021.91 1021.77 1021.62 1021.52 1021.48 1021.49 1021.56 1021.65 1021.75 1021.84 1021.94 1022.05 1022.20 1022.41 1022.72 1023.14 1023.67 1024.28 1024.95 1025.64 1026.30 1026.90 1027.39 1027.75 1027.98
1018.75 1019.25 1019.66 1019.95 1020.08 1020.11 1020.06 1020.03 1020.05 1020.18 1020.42 1020.75 1021.13 1021.50 1021.82 1022.05 1022.18 1022.21 1022.16 1022.08 1022.00 1021.95 1021.93 1021.97 1022.03 1022.11 1022.20 1022.28 1022.35 1022.44 1022.57 1022.77 1023.04 1023.42 1023.90 1024.46 1025.07 1025.71 1026.32 1026.88 1027.36 1027.74 1028.00
1018.58 1019.14 1019.62 1019.97 1020.17 1020.25 1020.25 1020.24 1020.27 1020.38 1020.59 1020.87 1021.21 1021.55 1021.86 1022.09 1022.24 1022.31 1022.32 1022.31 1022.29 1022.30 1022.34 1022.40 1022.49 1022.59 1022.67 1022.75 1022.83 1022.92 1023.03 1023.20 1023.44 1023.77 1024.17 1024.64 1025.16 1025.70 1026.24 1026.73 1027.18 1027.55 1027.84
1018.51 1019.08 1019.59 1019.97 1020.21 1020.33 1020.37 1020.39 1020.43 1020.54 1020.72 1020.98 1021.28 1021.59 1021.87 1022.10 1022.27 1022.37 1022.44 1022.49 1022.54 1022.60 1022.69 1022.81 1022.93 1023.05 1023.17 1023.27 1023.36 1023.45 1023.57 1023.72 1023.93 1024.19 1024.50 1024.87 1025.28 1025.70 1026.13 1026.55 1026.94 1027.29 1027.61
1018.48 1019.03 1019.52 1019.90 1020.15 1020.30 1020.37 1020.42 1020.50 1020.62 1020.81 1021.06 1021.34 1021.63 1021.90 1022.13 1022.31 1022.45 1022.56 1022.66 1022.76 1022.88 1023.02 1023.18 1023.34 1023.50 1023.65 1023.78 1023.90 1024.02 1024.15 1024.29 1024.47 1024.67 1024.91 1025.18 1025.47 1025.77 1026.09 1026.42 1026.75 1027.08 1027.40
1018.45 1018.93 1019.37 1019.71 1019.95 1020.11 1020.23 1020.33 1020.45 1020.62 1020.85 1021.11 1021.40 1021.69 1021.96 1022.19 1022.39 1022.55 1022.70 1022.84 1022.99 1023.15 1023.33 1023.52 1023.72 1023.91 1024.09 1024.25 1024.41 1024.56 1024.71 1024.86 1025.02 1025.19 1025.37 1025.55 1025.74 1025.94 1026.15 1026.39 1026.66 1026.96 1027.29
1018.35 1018.73 1019.08 1019.37 1019.60 1019.77 1019.93 1020.09 1020.29 1020.53 1020.82 1021.13 1021.45 1021.76 1022.04 1022.29 1022.50 1022.68 1022.85 1023.02 1023.20 1023.39 1023.60 1023.81 1024.03 1024.24 1024.44 1024.63 1024.82 1025.00 1025.17 1025.35 1025.51 1025.67 1025.81 1025.93 1026.05 1026.17 1026.30 1026.47 1026.68 1026.94 1027.26
1018.13 1018.41 1018.67 1018.89 1019.09 1019.29 1019.49 1019.74 1020.02 1020.35 1020.72 1021.09 1021.46 1021.80 1022.11 1022.37 1022.60 1022.81 1023.00 1023.18 1023.38 1023.59 1023.80 1024.02 1024.24 1024.45 1024.66 1024.87 1025.07 1025.28 1025.48 1025.68 1025.86 1026.02 1026.15 1026.26 1026.33 1026.40 1026.47 1026.58 1026.74 1026.97 1027.26
1017.78 1017.95 1018.12 1018.29 1018.47 1018.69 1018.95 1019.28 1019.66 1020.08 1020.53 1020.97 1021.40 1021.78 1022.11 1022.40 1022.64 1022.86 1023.07 1023.27 1023.48 1023.69 1023.90 1024.11 1024.32 1024.52 1024.72 1024.92 1025.13 1025.34 1025.56 1025.78 1025.99 1026.17 1026.32 1026.42 1026.49 1026.54 1026.58 1026.65 1026.78 1026.96 1027.23
1017.32 1017.40 1017.49 1017.61 1017.78 1018.02 1018.34 1018.74 1019.21 1019.72 1020.24 1020.75 1021.22 1021.63 1021.99 1022.29 1022.55 1022.79 1023.01 1023.23 1023.45 1023.67 1023.87 1024.07 1024.26 1024.43 1024.60 1024.78 1024.97 1025.17 1025.40 1025.63 1025.86 1026.07 1026.24 1026.37 1026.45 1026.50 1026.55 1026.60 1026.70 1026.85 1027.08
1016.80 1016.79 1016.82 1016.91 1017.07 1017.34 1017.71 1018.17 1018.70 1019.27 1019.84 1020.39 1020.88 1021.31 1021.68 1022.00 1022.28 1022.54 1022.79 1023.03 1023.27 1023.49 1023.70 1023.89 1024.05 1024.19 1024.32 1024.46 1024.61 1024.79 1025.00 1025.24 1025.48 1025.71 1025.91 1026.07 1026.18 1026.25 1026.31 1026.36 1026.45 1026.58 1026.78
1016.27 1016.20 1016.18 1016.24 1016.41 1016.69 1017.09 1017.58 1018.14 1018.74 1019.32 1019.88 1020.37 1020.80 1021.18 1021.50 1021.80 1022.08 1022.36 1022.64 1022.91 1023.16 1023.39 1023.57 1023.71 1023.82 1023.92 1024.01 1024.11 1024.25 1024.43 1024.64 1024.88 1025.11 1025.34 1025.52 1025.67 1025.78 1025.86 1025.93 1026.01 1026.14 1026.31
1015.78 1015.67 1015.62 1015.67 1015.82 1016.11 1016.51 1017.00 1017.56 1018.14 1018.71 1019.24 1019.71 1020.12 1020.49 1020.82 1021.13 1021.45 1021.77 1022.09 1022.41 1022.70 1022.95 1023.14 1023.28 1023.37 1023.43 1023.47 1023.53 1023.61 1023.75 1023.92 1024.14 1024.37 1024.60 1024.81 1024.98 1025.12 1025.23 1025.32 1025.41 1025.53 1025.69
1015.38 1015.25 1015.18 1015.21 1015.35 1015.62 1016.00 1016.47 1016.98 1017.52 1018.04 1018.52 1018.95 1019.33 1019.68 1020.01 1020.34 1020.69 1021.05 1021.43 1021.80 1022.13 1022.42 1022.63 1022.78 1022.86 1022.88 1022.89 1022.90 1022.93 1023.01 1023.15 1023.33 1023.54 1023.76 1023.97 1024.17 1024.33 1024.46 1024.57 1024.68 1024.81 1024.95
1015.09 1014.95 1014.87 1014.88 1015.01 1015.25 1015.58 1016.00 1016.45 1016.92 1017.37 1017.78 1018.16 1018.50 1018.82 1019.15 1019.50 1019.88 1020.28 1020.70 1021.11 1021.48 1021.80 1022.04 1022.20 1022.28 1022.29 1022.27 1022.24 1022.23 1022.26 1022.35 1022.49 1022.67 1022.87 1023.08 1023.27 1023.45 1023.60 1023.73 1023.85 1023.99 1024.13
1014.90 1014.77 1014.70 1014.70 1014.80 1015.00 1015.29 1015.63 1016.01 1016.40 1016.77 1017.11 1017.43 1017.72 1018.02 1018.34 1018.69 1019.08 1019.50 1019.94 1020.38 1020.77 1021.11 1021.37 1021.53 1021.61 1021.62 1021.58 1021.53 1021.49 1021.49 1021.53 1021.63 1021.78 1021.95 1022.14 1022.32 1022.50 1022.66 1022.80 1022.94 1023.08 1023.23
1014.82 1014.72 1014.66 1014.66 1014.74 1014.90 1015.12 1015.39 1015.69 1015.99 1016.29 1016.56 1016.82 1017.08 1017.35 1017.64 1017.98 1018.36 1018.77 1019.20 1019.62 1020.01 1020.34 1020.58 1020.74 1020.82 1020.83 1020.78 1020.72 1020.67 1020.65 1020.67 1020.74 1020.84 1020.99 1021.15 1021.32 1021.48 1021.63 1021.78 1021.93 1022.08 1022.24
1014.84 1014.78 1014.75 1014.75 1014.81 1014.93 1015.09 1015.29 1015.52 1015.74 1015.97 1016.19 1016.39 1016.61 1016.84 1017.10 1017.40 1017.74 1018.10 1018.48 1018.85 1019.19 1019.47 1019.68 1019.82 1019.88 1019.88 1019.84 1019.78 1019.73 1019.70 1019.71 1019.76 1019.84 1019.95 1020.08 1020.23 1020.37 1020.51 1020.66 1020.81 1020.97 1021.14
1014.95 1014.94 1014.94 1014.96 1015.00 1015.08 1015.20 1015.34 1015.50 1015.66 1015.83 1015.99 1016.16 1016.33 1016.52 1016.73 1016.97 1017.23 1017.52 1017.80 1018.08 1018.32 1018.53 1018.67 1018.76 1018.79 1018.79 1018.75 1018.70 1018.66 1018.64 1018.65 1018.68 1018.75 1018.83 1018.93 1019.04 1019.16 1019.28 1019.41 1019.56 1019.73 1019.92
1015.11 1015.17 1015.22 1015.26 1015.30 1015.36 1015.43 1015.52 1015.63 1015.74 1015.86 1015.98 1016.10 1016.23 1016.37 1016.52 1016.68 1016.85 1017.02 1017.19 1017.34 1017.46 1017.55 1017.61 1017.63 1017.62 1017.59 1017.56 1017.52 1017.50 1017.49 1017.50 1017.53 1017.57 1017.63 1017.69 1017.76 1017.85 1017.94 1018.06 1018.20 1018.38 1018.58
Thickness
5735 5737 5737 5737 5735 5734 5732 5731 5730 5729 5728 5725 5722 5719 5718 5719 5719 5720 5720 5720 5719 5718 5718 5716 5715 5714 5711 5709 5708 5706 5703 5701 5700 5696 5692 5691 5691 5691 5690 5689 5689 5688 5687
5730 5732 5733 5733 5732 5730 5729 5728 5727 5726 5726 5724 5722 5720 5717 5716 5716 5716 5716 5716 5716 5716 5715 5713 5712 5710 5708 5706 5705 5704 5699 5698 5698 5694 5687 5682 5682 5684 5685 5684 5683 5682 5682
5729 5729 5729 5729 5729 5728 5727 5727 5726 5725 5724 5722 5719 5717 5714 5712 5711 5711 5712 5713 5713 5712 5712 5711 5709 5707 5706 5703 5703 5702 5699 5695 5695 5695 5689 5681 5675 5676 5677 5678 5678 5677 5677
5730 5729 5728 5727 5727 5727 5727 5726 5724 5723 5721 5720 5717 5713 5709 5706 5707 5708 5709 5709 5710 5709 5709 5708 5707 5705 5703 5702 5701 5700 5698 5696 5692 5692 5691 5689 5684 5676 5670 5671 5672 5673 5672
5730 5728 5728 5727 5727 5727 5725 5724 5722 5720 5719 5718 5715 5712 5708 5707 5707 5706 5706 5706 5706 5706 5706 5705 5704 5702 5701 5700 5699 5698 5696 5695 5692 5690 5688 5685 5682 5679 5672 5665 5665 5666 5667
5730 5729 5728 5726 5724 5724 5722 5720 5718 5717 5716 5715 5712 5710 5707 5705 5703 5702 5701 5701 5701 5702 5702 5701 5701 5699 5698 5697 5696 5695 5694 5692 5691 5688 5686 5683 5680 5676 5672 5665 5662 5660 5661
5727 5725 5723 5721 5720 5719 5718 5717 5715 5713 5713 5711 5709 5708 5706 5704 5702 5701 5699 5698 5697 5697 5698 5698 5697 5696 5695 5694 5693 5692 5690 5689 5687 5685 5683 5682 5680 5678 5673 5667 5661 5658 5656
5726 5725 5723 5721 5719 5718 5716 5714 5712 5710 5709 5708 5706 5705 5704 5702 5701 5700 5699 5697 5696 5696 5696 5695 5694 5694 5693 5691 5690 5688 5687 5686 5684 5682 5680 5679 5677 5676 5673 5668 5661 5655 5651
5725 5724 5722 5720 5718 5716 5714 5713 5710 5708 5707 5705 5704 5702 5702 5701 5699 5698 5697 5696 5695 5695 5693 5693 5692 5690 5689 5688 5687 5684 5683 5682 5680 5678 5677 5675 5673 5672 5670 5668 5665 5657 5649
5724 5722 5721 5719 5717 5715 5713 5711 5709 5707 5705 5703 5701 5701 5699 5699 5698 5696 5694 5693 5693 5692 5691 5689 5688 5687 5685 5684 5683 5681 5679 5678 5676 5675 5673 5671 5669 5668 5667 5665 5662 5659 5653
5722 5721 5719 5718 5716 5713 5711 5708 5707 5704 5702 5700 5699 5698 5696 5696 5694 5693 5692 5691 5690 5689 5688 5686 5685 5683 5682 5680 5679 5677 5675 5673 5672 5671 5669 5667 5666 5664 5662 5660 5658 5655 5652
5721 5720 5717 5714 5712 5710 5708 5706 5704 5702 5700 5699 5697 5694 5693 5692 5690 5689 5688 5688 5687 5686 5685 5683 5681 5680 5678 5677 5675 5673 5671 5669 5667 5666 5665 5663 5662 5659 5657 5655 5653 5650 5648
5716 5715 5712 5710 5709 5707 5705 5703 5702 5700 5698 5696 5694 5691 5689 5688 5686 5685 5685 5684 5683 5682 5681 5680 5678 5676 5675 5673 5672 5670 5668 5666 5664 5662 5660 5658 5657 5654 5652 5650 5648 5645 5643
5712 5710 5708 5706 5706 5705 5703 5701 5699 5698 5696 5693 5691 5688 5686 5685 5683 5682 5681 5680 5679 5677 5676 5675 5674 5673 5671 5670 5668 5666 5664 5662 5660 5658 5657 5655 5653 5651 5648 5646 5642 5640 5636
5707 5707 5705 5704 5703 5701 5700 5699 5697 5695 5693 5690 5687 5685 5683 5681 5679 5678 5676 5676 5674 5673 5671 5670 5669 5668 5667 5666 5664 5662 5660 5657 5655 5654 5652 5651 5650 5648 5646 5643 5638 5635 5630
5705 5705 5703 5702 5700 5699 5698 5696 5694 5692 5690 5686 5684 5682 5679 5677 5675 5673 5672 5670 5669 5667 5666 5664 5663 5663 5663 5662 5661 5659 5655 5653 5651 5649 5647 5646 5645 5644 5642 5640 5637 5633 5628
5702 5702 5701 5700 5699 5698 5697 5694 5692 5690 5686 5683 5680 5678 5676 5673 5671 5670 5667 5665 5663 5662 5660 5659 5659 5658 5658 5658 5657 5654 5652 5648 5646 5644 5642 5642 5640 5638 5636 5634 5632 5628 5626
5699 5699 5699 5698 5697 5696 5695 5693 5689 5686 5682 5679 5676 5674 5672 5669 5667 5664 5662 5660 5659 5657 5655 5654 5654 5653 5653 5653 5651 5649 5646 5643 5641 5639 5638 5636 5634 5633 5630 5628 5624 5621 5619
5698 5697 5697 5696 5694 5693 5691 5688 5684 5681 5678 5675 5673 5671 5668 5665 5662 5659 5658 5656 5654 5652 5651 5650 5649 5648 5648 5648 5647 5644 5641 5638 5635 5634 5633 5631 5629 5628 5625 5622 5617 5614 5613
5694 5694 5693 5691 5689 5688 5687 5683 5679 5676 5674 5673 5671 5668 5665 5662 5659 5656 5654 5652 5650 5648 5647 5645 5644 5644 5643 5643 5642 5640 5637 5632 5630 5628 5628 5627 5625 5623 5620 5617 5613 5609 5607
5689 5689 5688 5686 5685 5684 5682 5678 5675 5672 5673 5671 5668 5664 5662 5659 5657 5653 5651 5648 5645 5642 5641 5639 5638 5638 5638 5637 5636 5635 5631 5629 5626 5624 5622 5621 5620 5618 5616 5613 5610 5607 5604
5682 5683 5682 5679 5679 5678 5676 5673 5670 5670 5668 5666 5663 5660 5658 5656 5653 5649 5646 5643 5640 5636 5634 5633 5631 5631 5632 5632 5631 5630 5628 5625 5622 5620 5619 5617 5616 5613 5611 5608 5605 5602 5598
5675 5676 5675 5673 5672 5671 5670 5666 5666 5664 5662 5659 5657 5655 5653 5651 5649 5645 5641 5638 5635 5632 5629 5627 5626 5626 5626 5626 5626 5625 5623 5621 5617 5616 5615 5613 5610 5608 5605 5602 5600 5596 5591
5667 5668 5668 5666 5665 5665 5664 5662 5660 5659 5656 5652 5650 5649 5647 5644 5643 5641 5638 5635 5632 5629 5626 5624 5622 5621 5620 5620 5619 5618 5617 5616 5613 5611 5609 5607 5604 5601 5598 5596 5593 5589 5586
5662 5661 5661 5660 5659 5659 5657 5656 5654 5652 5649 5646 5644 5643 5641 5639 5637 5635 5634 5633 5632 5631 5627 5624 5622 5619 5618 5619 5618 5615 5613 5611 5608 5605 5602 5598 5596 5593 5591 5588 5586 5583 5579
5655 5654 5654 5654 5653 5652 5651 5650 5648 5646 5643 5639 5638 5637 5634 5633 5631 5629 5627 5628 5628 5628 5626 5624 5621 5620 5619 5617 5614 5612 5611 5608 5605 5600 5596 5593 5591 5588 5586 5583 5580 5577 5574